CELESTA (53111 NORAD) Tracking and Keplerian Element Data

This shows tracking and keplerian element data for the satellite.

Feedback or suggestion? Click here.




ElementValue
Catalog53111
NameCELESTA
Epoch Orbit730
Epoch Day310.17474584
Epoch Year2022
RAAN37.258
Inclination70.4223
Eccentricity0.0024959
Argument of Perigee243.8956
Mean Anonmoly115.9136
Mean Motion6.43203861
Decay Rate-3E-08
L11 53111U 22080G 22310.17474584 -.00000003 00000+0 00000+0 0 9993
L22 53111 70.4223 37.2580 0024959 243.8956 115.9136 6.43203861 7301



Live tracking and technical data element details for CELESTA (NORAD 53111). CELESTA can be tracked NOW for your location showing map with azimuth and elevation plus other details from your city location.







IsCatalogInMostPopularTable: catalog: 53111, numindb: 6
Update: records affected: 1



GetName: 53111 CELESTA

Hit Count: updated at: Mon, 28 Nov 2022 04:27:45 GMT